Flag for Japan Weather past 2 weeks in Fukushima, Japan

Now
77 °F

Mild.


Feels Like: 78 °F
Forecast: 66 / 93 °F
Wind: 3 mph from Northwest

Location: Wakamatsu

Current Time: Jul 31, 2014 at 12:12:37 AM

Latest Report: Jul 30, 2014 at 11:00 PM


Visibility: 7 mi

Pressure: 29.95 "Hg

Humidity: 82%

Dew point: 71 °F

Location of FukushimaLocation

Historic Weather in Fukushima — Graph

°F

Fukushima temperature yesterday

Maximum temperature yesterday: 92 °F (at 2:00 PM)
Minimum temperature yesterday: 68 °F (at 4:00 AM)
Average temperature yesterday: 80 °F

Past Weeks' High & Low Weather Summary

 TemperatureHumidityPressure
High96 °F (Jul 26, 1:00 PM)98% (Jul 18, 2:00 AM)30.04 "Hg (Jul 18, 2:00 AM)
Low62 °F (Jul 29, 5:00 AM)35% (Jul 29, 1:00 PM)29.63 "Hg (Jul 24, 5:00 AM)
Average76 °F79%29.85 "Hg
* Reported Jul 15 10:00 PM — Jul 30 10:00 PM, Fukushima, Weather by CustomWeather, © 2014

Note: Actual official high and low records may vary slightly from our data, if they occured in-between our weather recording intervals... More about our weather records

Advertising

Fukushima weather history for previous 24 hours

 ConditionsComfort  
Time TempWeatherWind HumidityBarometerVisibility
10:00 PM
Jul 30
79 °FWarm.3 mph70%29.95 "Hg8 mi
9:00 PM80 °FWarm.3 mph69%29.94 "Hg7 mi
8:00 PM83 °FWarm.3 mph64%29.93 "Hg8 mi
7:00 PM85 °FWarm.6 mph60%29.90 "Hg9 mi
6:00 PM87 °FWarm.6 mph55%29.90 "Hg9 mi
5:00 PM90 °FHot.8 mph46%29.90 "Hg12 mi
4:00 PM92 °FHot.6 mph43%29.90 "Hg12 mi
3:00 PM92 °FHot.6 mph40%29.90 "Hg12 mi
2:00 PM92 °FHot.7 mph40%29.92 "Hg11 mi
1:00 PM90 °FHot.6 mph45%29.94 "Hg12 mi
12:00 PM88 °FHot.5 mph46%29.96 "Hg12 mi
11:00 AM87 °FWarm.3 mph51%29.98 "Hg9 mi
10:00 AM83 °FWarm.2 mph59%29.99 "Hg8 mi
9:00 AM79 °FWarm.3 mph63%30.01 "Hg9 mi
8:00 AM77 °FWarm.2 mph72%30.02 "Hg8 mi
7:00 AM72 °FMild.1 mph80%30.04 "Hg7 mi
6:00 AM69 °FFog.2 mph89%30.04 "Hg6 mi
5:00 AM69 °FMild.2 mph91%30.02 "Hg6 mi
4:00 AM68 °FMild.1 mph91%30.01 "Hg7 mi
3:00 AM70 °FMild.3 mph88%30.00 "Hg7 mi
2:00 AM69 °FMild.2 mph90%29.99 "Hg7 mi
1:00 AM71 °FMild.1 mph87%29.98 "Hg9 mi
12:00 AM71 °FMild.1 mph87%29.98 "Hg10 mi
Weather by CustomWeather, © 2014

See weather overviewHow to use our weather pages